[[{"header":{"parameterUnit":"m.s-1","parameterCategory":1,"la1":30.2991,"la2":30.254,"lo1":-89.0895,"lo2":-89.0444,"dy":0.0017,"dx":0.0017,"nx":28,"ny":28,"refTime":"2023-09-28T21:00:00:Z","depth":0,"parameterNumber":2,"parameterNumberName":"U-component_of_WINDS"},"data":[0,0,0,0,0,0,0,0,0,0,0,0,0,0,0,0,0,0,0,0,0,0,0,0,0,0,0,0,0,0,0,0,0,0,0,0,0,0,0,0,0,0,0,0,0,0,0,0,0,0,0,0,0,0,0,0,0,0,-2.661,-2.661,0,-2.6622,-2.6622,-2.6622,-2.6526,-2.6523,-2.6521,-2.6518,-2.653,-2.6533,-2.6536,0,0,0,0,0,0,0,0,0,0,0,0,0,-2.6504,-2.6506,-2.661,-2.661,-2.661,-2.6622,-2.6622,-2.6622,-2.6526,-2.6523,-2.652,-2.6517,-2.653,-2.6533,-2.6536,0,0,0,0,0,0,0,0,0,0,0,0,0,-2.6536,-2.6507,-2.661,-2.6564,-2.656,-2.6622,-2.6622,-2.6622,-2.6527,-2.6523,-2.6519,-2.6515,-2.6528,-2.6533,-2.6537,-2.6644,0,0,-2.655,-2.6552,0,0,0,0,0,0,0,0,-2.6535,-2.654,-2.657,-2.6567,-2.6563,-2.6568,-2.6589,-2.6629,-2.6528,-2.654,-2.6518,-2.6513,-2.6546,-2.6549,-2.656,-2.6644,-2.6645,-2.655,-2.6553,-2.6555,-2.6556,0,0,0,0,0,0,0,-2.6532,-2.6539,-2.6614,-2.6571,-2.6566,-2.6542,-2.6543,-2.6596,-2.6565,-2.6538,-2.6531,-2.6534,-2.6543,-2.6556,-2.6559,-2.6645,-2.655,-2.6554,-2.6556,-2.6558,-2.6817,-2.6822,0,0,0,0,0,0,-2.6536,-2.6538,-2.6614,-2.6615,-2.6538,-2.6548,-2.6548,-2.6571,-2.6564,-2.656,-2.6537,-2.6529,-2.6551,-2.6555,-2.656,-2.6684,-2.6554,-2.6558,-2.6561,-2.6813,-2.6818,-2.6823,0,0,0,0,0,0,-2.6535,-2.6544,-2.6614,-2.6575,-2.6582,-2.6554,-2.658,-2.6573,-2.6585,-2.6564,-2.6558,-2.6556,-2.6548,-2.6554,-2.6623,-2.6683,-2.656,-2.6564,-2.6808,-2.6815,-2.6821,-2.6934,0,0,0,0,0,0,-2.6532,-2.6544,-2.6584,-2.6576,-2.6584,-2.6678,-2.6584,-2.6576,-2.6593,-2.6583,-2.658,-2.6575,-2.6545,-2.6618,-2.6628,-2.6687,-2.6568,-2.6802,-2.6811,-2.6819,-2.6925,-2.6944,-2.696,0,0,0,0,0,-2.6528,-2.6616,-2.6587,-2.6597,-2.6634,-2.6681,-2.6686,-2.6649,-2.6598,-2.6638,-2.6625,-2.6575,-2.6675,-2.6626,-2.6636,-2.6697,-2.6799,-2.6809,-2.6818,-2.6917,-2.694,-2.696,0,0,0,0,0,0,-2.6632,-2.6614,-2.6582,-2.6669,-2.6677,-2.6665,-2.6714,-2.6674,-2.6697,-2.6687,-2.664,-2.664,-2.6718,-2.6715,-2.666,-2.6801,-2.6728,-2.674,-2.68,-2.6821,-2.6839,-2.6838,-2.6571,0,0,0,0,0,-2.6665,-2.6705,-2.6687,-2.6766,-2.6772,-2.6743,-2.6762,-2.6733,-2.674,-2.6743,-2.6734,-2.6743,-2.6775,-2.6798,-2.6828,-2.6924,-2.6922,-2.6972,-2.6989,-2.7004,-2.7015,-2.7066,-2.7087,-2.6855,-2.6855,-2.6855,0,0,-2.6733,-2.6728,-2.6756,-2.6786,-2.6789,-2.6832,-2.6746,-2.6795,-2.6826,-2.675,-2.6815,-2.681,-2.6816,-2.69,-2.6936,-2.6899,-2.7079,-2.7016,-2.7028,-2.7031,-2.7078,-2.71,-2.712,-2.6862,-2.6861,-2.6859,0,0,-2.6879,-2.688,-2.6945,-2.695,-2.6956,-2.6936,-2.6952,-2.6946,-2.6939,-2.7004,-2.6948,-2.6985,-2.7043,-2.705,-2.7061,-2.721,-2.7166,-2.7221,-2.7312,-2.7362,-2.7381,-2.7397,-2.745,-2.747,-2.7232,-2.7233,-2.7233,0,-2.6963,-2.7025,-2.6984,-2.7037,-2.7051,-2.6985,-2.7051,-2.7058,-2.7073,-2.7085,-2.7044,-2.7115,-2.7115,-2.7199,-2.7236,-2.7247,-2.7264,-2.7221,-2.7381,-2.7397,-2.7411,-2.7462,-2.7482,-2.7239,-2.7239,-2.7238,-2.7237,0,-2.7128,-2.7172,-2.7224,-2.7241,-2.7261,-2.7321,-2.7289,-2.7315,-2.7284,-2.7269,-2.7336,-2.7334,-2.7361,-2.7379,-2.735,-2.746,-2.7437,-2.7389,-2.7315,-2.7441,-2.7487,-2.7506,-2.7249,-2.7247,-2.7245,-2.7243,0,0,-2.7339,-2.7333,-2.7353,-2.7359,-2.7361,-2.7394,-2.745,-2.7477,-2.75,-2.7513,-2.7559,-2.761,-2.7566,-2.7579,-2.755,-2.7594,-2.7713,-2.7541,-2.754,-2.7573,-2.7834,-2.7869,-2.7892,-2.7684,-2.7687,-2.769,-2.7833,0,-2.7482,-2.7577,-2.7542,-2.764,-2.768,-2.7618,-2.7666,-2.7673,-2.7661,-2.7692,-2.7678,-2.7715,-2.7655,-2.7662,-2.7703,-2.769,-2.7764,-2.7679,-2.7726,-2.7728,-2.7726,-2.7916,-2.7954,-2.8089,-2.7851,-2.7854,-2.7856,0,-2.766,-2.768,-2.7782,-2.7777,-2.7793,-2.7837,-2.7859,-2.7891,-2.7897,-2.7885,-2.79,-2.7861,-2.7916,-2.7843,-2.7917,-2.786,-2.7877,-2.7874,-2.7878,-2.7881,-2.78,-2.7924,-2.8132,-2.8152,-2.7884,-2.7882,-2.788,0,-2.7804,-2.7856,-2.7924,-2.7932,-2.7928,-2.796,-2.796,-2.7962,-2.7981,-2.8001,-2.8012,-2.8038,-2.8052,-2.8073,-2.8043,-2.7992,-2.8122,-2.8046,-2.8114,-2.8115,-2.8143,-2.8142,-2.8356,-2.8155,-2.8155,-2.8155,-2.8154,0,-2.7966,-2.8031,-2.7988,-2.803,-2.8101,-2.806,-2.8131,-2.8124,-2.8127,-2.8166,-2.8114,-2.8152,-2.811,-2.8144,-2.8121,-2.8186,-2.8193,-2.8185,-2.8178,-2.8189,-2.8191,-2.82,-2.819,-2.816,-2.8159,-2.8158,-2.8157,0,-2.8138,-2.8112,-2.8182,-2.8172,-2.8172,-2.8224,-2.8216,-2.8254,-2.8238,-2.8289,-2.8298,-2.8273,-2.831,-2.8282,-2.8319,-2.8304,-2.839,-2.837,-2.8388,-2.8383,-2.8451,-2.8445,-2.8679,-2.8708,-2.8489,-2.8491,-2.8493,0,-2.8243,-2.8292,-2.8287,-2.831,-2.8313,-2.835,-2.8369,-2.8331,-2.8353,-2.8364,-2.8401,-2.8434,-2.8458,-2.8521,-2.8506,-2.8534,-2.8514,-2.8594,-2.8518,-2.8529,-2.8515,-2.8513,-2.8518,-2.861,-2.8612,-2.8614,-2.8616,0,-2.8433,-2.8418,-2.8446,-2.8472,-2.8495,-2.8513,-2.8527,-2.8548,-2.851,-2.8537,-2.8574,-2.8594,-2.8631,-2.8665,-2.8688,-2.8688,-2.8646,-2.864,-2.8657,-2.867,-2.8678,-2.8674,-2.843,-2.8635,-2.8633,-2.8632,-2.8631,-2.863,-2.8574,-2.8614,-2.8618,-2.8652,-2.8658,-2.8672,-2.8707,-2.8696,-2.8727,-2.8754,-2.873,-2.8776,-2.8781,-2.8807,-2.8812,-2.8847,-2.8814,-2.8839,-2.8845,-2.8852,-2.8862,-2.8673,-2.8852,-2.8851,-2.885,-2.885,-2.885,0,-2.8761,-2.876,-2.8792,-2.8812,-2.8839,-2.8798,-2.8811,-2.8836,-2.8877,-2.8885,-2.891,-2.8954,-2.8986,-2.8974,-2.9003,-2.9033,-2.9015,-2.9042,-2.9039,-2.904,-2.889,-2.8872,-2.9056,-2.9056,-2.9056,-2.9056,-2.9056,-2.9056,-2.8861,-2.8926,-2.8912,-2.898,-2.8979,-2.9023,-2.9034,-2.9047,-2.9053,-2.9104,-2.913,-2.9122,-2.9123,-2.9151,-2.9179,-2.9175,-2.9188,-2.9222,-2.9211,-2.9071,-2.905,-2.9031,-2.9014,-2.9225,-2.9225,-2.9358,-2.9359,-2.936]},{"header":{"parameterUnit":"m.s-1","parameterCategory":1,"la1":30.2991,"la2":30.254,"lo1":-89.0895,"lo2":-89.0444,"dy":0.0017,"dx":0.0017,"nx":28,"ny":28,"refTime":"2023-09-28T21:00:00:Z","depth":0,"parameterNumber":3,"parameterNumberName":"V-component_of_WINDS"},"data":[0,0,0,0,0,0,0,0,0,0,0,0,0,0,0,0,0,0,0,0,0,0,0,0,0,0,0,0,0,0,0,0,0,0,0,0,0,0,0,0,0,0,0,0,0,0,0,0,0,0,0,0,0,0,0,0,0,0,0.4886,0.4886,0,0.4843,0.4842,0.4842,0.4822,0.4822,0.4822,0.4822,0.4775,0.4774,0.4772,0,0,0,0,0,0,0,0,0,0,0,0,0,0.495,0.4949,0.4886,0.4886,0.4885,0.4843,0.4842,0.4842,0.4822,0.4822,0.4822,0.4822,0.4775,0.4774,0.4772,0,0,0,0,0,0,0,0,0,0,0,0,0,0.4916,0.4948,0.4886,0.487,0.4868,0.4843,0.4842,0.4841,0.4822,0.4822,0.4822,0.4822,0.4776,0.4774,0.4772,0.4759,0,0,0.4766,0.4765,0,0,0,0,0,0,0,0,0.4918,0.4913,0.4873,0.4871,0.4869,0.4838,0.4847,0.4814,0.4822,0.4839,0.4822,0.4822,0.4796,0.4792,0.4784,0.4757,0.4755,0.4766,0.4765,0.4764,0.4763,0,0,0,0,0,0,0,0.492,0.4915,0.4869,0.4872,0.487,0.4864,0.486,0.4841,0.4817,0.4838,0.4836,0.4831,0.4794,0.4786,0.4782,0.4754,0.4766,0.4764,0.4763,0.4762,0.4714,0.4714,0,0,0,0,0,0,0.4925,0.4917,0.487,0.4868,0.4894,0.4863,0.4858,0.4848,0.4818,0.4813,0.4831,0.4831,0.4789,0.4785,0.4781,0.4764,0.4764,0.4762,0.4761,0.4715,0.4714,0.4714,0,0,0,0,0,0,0.4927,0.4921,0.4872,0.4892,0.4885,0.4862,0.4851,0.4847,0.4838,0.4813,0.4808,0.4827,0.4789,0.4783,0.4765,0.4762,0.4761,0.4759,0.4715,0.4715,0.4714,0.4729,0,0,0,0,0,0,0.4929,0.4922,0.4917,0.4892,0.4884,0.4857,0.485,0.4846,0.4835,0.4833,0.4807,0.4803,0.4788,0.4768,0.4763,0.4759,0.4758,0.4715,0.4715,0.4714,0.4729,0.473,0.473,0,0,0,0,0,0.4931,0.4922,0.4917,0.4911,0.4878,0.4857,0.4853,0.4837,0.4835,0.4829,0.4814,0.4804,0.4763,0.4766,0.476,0.4756,0.4715,0.4715,0.4714,0.4729,0.4729,0.473,0,0,0,0,0,0,0.4946,0.4919,0.4912,0.4895,0.4879,0.4854,0.4846,0.4838,0.4821,0.482,0.48,0.4795,0.4778,0.4765,0.4769,0.4742,0.4738,0.4737,0.4751,0.4751,0.4752,0.4755,0.4756,0,0,0,0,0,0.4948,0.4934,0.491,0.4898,0.489,0.487,0.486,0.4849,0.4831,0.4824,0.4806,0.4789,0.4772,0.4761,0.4744,0.4727,0.4721,0.4721,0.4722,0.4723,0.4721,0.4712,0.4712,0.4714,0.4714,0.4714,0,0,0.495,0.4934,0.4926,0.49,0.4886,0.4872,0.4864,0.4849,0.4838,0.4821,0.4803,0.479,0.4768,0.4751,0.4742,0.474,0.472,0.4722,0.4723,0.4721,0.4712,0.4712,0.4712,0.4713,0.4713,0.4713,0,0,0.4948,0.4934,0.4922,0.4909,0.4888,0.4875,0.4872,0.4849,0.484,0.4821,0.4809,0.4795,0.4766,0.4752,0.4741,0.4734,0.4725,0.4729,0.4733,0.4724,0.4724,0.4723,0.4721,0.4721,0.4728,0.4729,0.4729,0,0.4954,0.4932,0.4917,0.4903,0.4892,0.4878,0.4865,0.4853,0.4827,0.482,0.4818,0.4782,0.4767,0.4746,0.4744,0.4736,0.4732,0.4732,0.4725,0.4725,0.4724,0.4722,0.4721,0.4729,0.4729,0.4729,0.4729,0,0.494,0.4926,0.4919,0.4896,0.4884,0.4871,0.4853,0.4843,0.4834,0.4821,0.4803,0.4784,0.4763,0.4757,0.4748,0.4735,0.4734,0.4729,0.4725,0.4725,0.4722,0.4721,0.473,0.473,0.473,0.473,0,0,0.4945,0.4915,0.4913,0.4903,0.4879,0.4867,0.4854,0.4835,0.4827,0.481,0.4798,0.4774,0.477,0.4757,0.4746,0.4738,0.4734,0.4733,0.4732,0.4734,0.472,0.4724,0.4723,0.4728,0.4728,0.4728,0.4722,0,0.494,0.4915,0.4902,0.4883,0.4869,0.4856,0.4844,0.4829,0.4816,0.4803,0.4789,0.4773,0.4768,0.476,0.4752,0.4737,0.4731,0.4737,0.4716,0.4716,0.4722,0.4722,0.4726,0.4721,0.4721,0.472,0.472,0,0.4929,0.4914,0.4895,0.4874,0.4868,0.4857,0.4839,0.4826,0.4808,0.48,0.4787,0.4776,0.4761,0.4758,0.4737,0.4741,0.4732,0.4724,0.4723,0.472,0.4718,0.4719,0.4719,0.4718,0.4718,0.4719,0.4719,0,0.4935,0.491,0.4895,0.4886,0.4862,0.4855,0.4844,0.4826,0.4816,0.48,0.4793,0.4775,0.4765,0.4751,0.4736,0.4735,0.4716,0.4712,0.4708,0.4709,0.4704,0.4705,0.4703,0.4699,0.4699,0.4699,0.4699,0,0.493,0.4918,0.4897,0.4888,0.4875,0.4859,0.4846,0.4834,0.4819,0.4807,0.4794,0.4783,0.4763,0.4749,0.4737,0.4721,0.4717,0.4709,0.4706,0.471,0.4711,0.4704,0.4703,0.4699,0.4699,0.4699,0.4699,0,0.4934,0.4919,0.4902,0.4881,0.4875,0.4866,0.4847,0.4838,0.4826,0.4811,0.4806,0.4787,0.477,0.4753,0.473,0.4722,0.4707,0.4702,0.4713,0.4711,0.4708,0.4709,0.4701,0.4699,0.4697,0.4697,0.4697,0,0.4931,0.4922,0.49,0.4892,0.4882,0.4868,0.4858,0.4843,0.4832,0.4812,0.4805,0.4787,0.4773,0.4747,0.473,0.4713,0.4708,0.4706,0.4705,0.471,0.4707,0.4708,0.4707,0.4707,0.4707,0.4707,0.4707,0,0.4928,0.4922,0.4908,0.4892,0.4881,0.4867,0.4853,0.4847,0.4828,0.4817,0.4801,0.479,0.4767,0.475,0.4731,0.4719,0.471,0.4708,0.4706,0.471,0.4716,0.4713,0.4715,0.4708,0.4708,0.4708,0.4707,0.4707,0.4929,0.4921,0.4904,0.489,0.4878,0.4865,0.4855,0.4842,0.4829,0.481,0.4801,0.4785,0.4767,0.4741,0.473,0.4716,0.4714,0.4711,0.471,0.471,0.4711,0.4719,0.4713,0.4713,0.4713,0.4712,0.4712,0,0.4925,0.4915,0.4901,0.4883,0.4871,0.4865,0.4849,0.484,0.4826,0.4811,0.4797,0.4778,0.4762,0.4745,0.4727,0.472,0.4715,0.4716,0.4716,0.4713,0.4714,0.4717,0.472,0.472,0.472,0.472,0.472,0.472,0.4922,0.4908,0.49,0.488,0.4869,0.4853,0.4845,0.4833,0.4821,0.4801,0.4788,0.4777,0.4761,0.4743,0.4728,0.4723,0.4717,0.4719,0.4713,0.4714,0.4713,0.4713,0.4716,0.4718,0.4718,0.4713,0.4713,0.4713]}]]